Station JLXA2 - Juneau Library, AK Image indicating link to RSS feed of recent meteorological observations for station JLXA2


Conditions at JLXA2 as of
(11:33 am AKDT)
1933 GMT on 05/24/2024:
     

Click on the graph icon in the table below to see a time series plot of the last five days of that observation.

5-day plot - Wind Direction Wind Direction (WDIR):ESE ( 110 deg true )
5-day plot - Wind Speed Wind Speed (WSPD): 2 kts
5-day plot - Wind Gust Wind Gust (GST): 5 kts
5-day plot - Air Temperature Air Temperature (ATMP): 51.4 °F
5-day plot - Dew Point Dew Point (DEWP): 38.5 °F
5-day plot - Wind Speed at 10 Meters Wind Speed at 10 meters (WSPD10M): 2 kts
5-day plot - Wind Speed at 20 Meters Wind Speed at 20 meters (WSPD20M): 2 kts
5-day plot -  Wind Speed, Wind Gust and Atmospheric Pressure Combined plot of Wind Speed, Gust, and Air Pressure
Previous observations
TIME
(AKDT)
5-day plot - Wind Direction
WDIR
 
5-day plot - Wind Speed
WSPD
kts
5-day plot - Wind Gust
GST
kts
5-day plot - Wave Height
WVHT
ft
5-day plot - Dominant Wave Period
DPD
sec
5-day plot - Average Wave Period
APD
sec
5-day plot - Mean Wave Direction
MWD
 
5-day plot - Atmospheric Pressure
PRES
in
5-day plot - Pressure Tendency
PTDY
in
5-day plot - Air Temperature
ATMP
°F
5-day plot - Water Temperature
WTMP
°F
5-day plot - Dew Point
DEWP
°F
5-day plot - Salinity
SAL
psu
5-day plot - Visibility
VIS
nmi
5-day plot - Tide (above MLLW)
TIDE
ft
2024-05-24 11:23 amSSW 1 4------ 51.6- 38.8---
2024-05-24 11:13 amENE 2 4------ 51.3- 38.5---
2024-05-24 11:03 amSSW 1 4------ 51.6- 39.4---
2024-05-24 10:53 am S 1 3------ 51.3- 39.2---
2024-05-24 10:43 am S 1 3------ 50.4- 39.2---
2024-05-24 10:33 am S 2 4------ 49.8- 39.2---
2024-05-24 10:23 am E 2 3------ 49.6- 40.3---
2024-05-24 10:13 amNNE 2 4------ 49.5- 40.8---
2024-05-24 10:03 amNNE 1 3------ 49.6- 41.5---
2024-05-24 09:53 am E 1 3------ 49.3- 41.5---
2024-05-24 09:43 am SE 1 3------ 48.9- 42.3---
2024-05-24 09:33 am N 3 5------ 48.0- 41.7---
2024-05-24 09:23 am NW 2 5------ 48.0- 42.1---
2024-05-24 09:13 am N 2 5------ 47.8- 42.4---
2024-05-24 09:03 amNNE 2 5------ 48.0- 43.0---
2024-05-24 08:53 amWSW 1 3------ 47.8- 43.7---
2024-05-24 08:43 am- 0 3------ 47.5- 43.9---
2024-05-24 08:33 amWSW 1 3------ 46.8- 43.3---
2024-05-24 08:23 amWSW 1 2------ 46.8- 43.3---
2024-05-24 08:13 amWSW 1 2------ 46.4- 43.5---
2024-05-24 08:03 am- 0 2------ 46.0- 43.2---
2024-05-24 07:53 am W 1 3------ 45.3- 43.2---
2024-05-24 07:43 amWSW 2 4------ 45.3- 43.5---
2024-05-24 07:33 am SW 2 4------ 45.5- 43.9---
2024-05-24 07:23 am- 0 2------ 45.3- 43.7---
2024-05-24 07:13 am SW 1 3------ 44.8- 43.3---
2024-05-24 07:03 am SW 2 4------ 44.8- 43.5---
2024-05-24 06:53 am- 0 3------ 44.8- 43.2---
2024-05-24 06:43 am- 0 2------ 44.6- 43.0---
2024-05-24 06:33 amWNW 1 2------ 44.6- 43.3---
2024-05-24 06:23 amWSW 2 3------ 44.6- 43.3---
2024-05-24 06:13 am- 0 3------ 44.8- 43.2---
2024-05-24 06:03 amNNE 1 2------ 44.4- 42.8---
2024-05-24 05:53 am- 0 2------ 44.2- 42.6---
2024-05-24 05:43 am N 1 3------ 44.1- 42.8---
2024-05-24 05:33 am NE 1 3------ 44.1- 43.0---
2024-05-24 05:23 am NW 2 5------ 44.1- 43.0---
2024-05-24 05:13 amWNW 1 3------ 44.2- 43.3---
2024-05-24 05:03 amWSW 1 4------ 44.4- 43.2---
2024-05-24 04:53 am- 0 3------ 44.2- 42.4---
2024-05-24 04:33 am N 2 3------ 44.1- 42.8---
2024-05-24 04:23 am N 1 3------ 44.1- 42.8---
2024-05-24 04:13 am- 0 2------ 43.9- 42.6---
2024-05-24 04:03 amNNE 1 2------ 44.1- 42.8---
2024-05-24 03:53 am NE 1 2------ 44.1- 43.0---
2024-05-24 03:43 am- 0 2------ 44.1- 43.0---
2024-05-24 03:33 am- 0 1------ 44.2- 43.2---
2024-05-24 03:23 am- 0 2------ 44.4- 43.3---
2024-05-24 03:13 am- 0 2------ 44.4- 43.3---
2024-05-24 03:03 amNNE 1 2------ 44.4- 43.0---
2024-05-24 02:53 am NE 1 2------ 44.2- 43.0---
2024-05-24 02:43 amNNE 1 2------ 44.2- 43.0---
2024-05-24 02:33 am NE 1 3------ 44.2- 43.0---
2024-05-24 02:23 am E 1 2------ 44.4- 43.2---
2024-05-24 02:13 am- 0 2------ 44.4- 43.2---
2024-05-24 02:03 amENE 1 3------ 44.4- 42.8---
2024-05-24 01:53 am E 2 5------ 44.4- 42.6---
2024-05-24 01:43 am E 3 4------ 44.4- 42.8---
2024-05-24 01:33 amESE 1 2------ 44.6- 43.3---
2024-05-24 01:23 am E 1 3------ 44.8- 43.3---
2024-05-24 01:13 am E 1 3------ 45.1- 43.7---
2024-05-24 01:03 amSSW 2 6------ 45.3- 43.0---
2024-05-24 12:53 am SW 3 7------ 45.1- 43.2---
2024-05-24 12:43 am E 2 5------ 45.1- 43.7---
2024-05-24 12:33 am W 4 8------ 45.1- 43.3---
2024-05-24 12:23 am W 2 6------ 45.5- 43.7---
2024-05-24 12:13 am W 2 5------ 45.9- 43.5---
2024-05-24 12:03 am SW 3 8------ 46.0- 43.5---
2024-05-23 11:53 pm SW 4 9------ 46.2- 43.3---
2024-05-23 11:43 pm SW 3 9------ 46.4- 43.7---
2024-05-23 11:33 pm SW 4 9------ 46.4- 44.1---
2024-05-23 11:23 pm SW 4 8------ 46.6- 44.2---
2024-05-23 11:13 pm S 2 5------ 46.6- 45.1---
2024-05-23 11:03 pm E 3 8------ 46.4- 45.3---
2024-05-23 10:53 pm E 1 3------ 46.4- 45.7---
2024-05-23 10:43 pm S 1 5------ 46.4- 45.5---
2024-05-23 10:33 pm W 2 5------ 46.6- 45.3---
2024-05-23 10:23 pmWNW 1 4------ 47.1- 45.7---
2024-05-23 10:13 pm- 0 2------ 47.3- 45.5---
2024-05-23 10:03 pmENE 2 5------ 47.1- 45.3---
2024-05-23 09:53 pm E 4 6------ 47.3- 45.0---
2024-05-23 09:43 pm E 4 7------ 47.5- 44.8---
2024-05-23 09:33 pm E 3 7------ 47.7- 45.5---
2024-05-23 09:23 pm E 3 5------ 48.0- 46.0---
2024-05-23 09:13 pmESE 2 5------ 48.2- 46.2---
2024-05-23 09:03 pmENE 3 5------ 48.2- 46.9---
2024-05-23 08:53 pm- 0 2------ 48.7- 47.7---
2024-05-23 08:43 pm E 1 2------ 48.6- 47.5---
2024-05-23 08:33 pm SE 2 5------ 48.6- 47.5---
2024-05-23 08:28 pm E 2 4------ 48.7- 47.5---
2024-05-23 08:23 pm E 2 4------ 48.7- 47.5---
2024-05-23 08:03 pm SE 2 7------ 48.9- 47.5---
2024-05-23 07:53 pmESE 3 8------ 48.6- 47.5---
2024-05-23 07:43 pm SE 4 7------ 48.7- 47.5---
2024-05-23 07:33 pmSSE 4 9------ 48.9- 47.5---
2024-05-23 07:23 pm SE 4 11------ 49.1- 47.5---
2024-05-23 07:13 pm SE 4 9------ 49.1- 47.3---
2024-05-23 07:03 pm SE 4 12------ 49.3- 47.5---
2024-05-23 06:53 pmESE 3 9------ 49.3- 47.7---
2024-05-23 06:43 pmENE 2 8------ 49.1- 47.7---
2024-05-23 06:33 pmESE 3 8------ 49.1- 47.5---
2024-05-23 06:23 pmESE 3 11------ 49.3- 47.5---
2024-05-23 06:13 pm E 3 8------ 49.5- 47.5---
2024-05-23 06:03 pmESE 3 7------ 49.5- 47.7---
2024-05-23 05:53 pmESE 5 10------ 49.5- 47.5---
2024-05-23 05:43 pm E 3 8------ 49.8- 47.8---
2024-05-23 05:33 pmESE 3 9------ 49.5- 47.8---
2024-05-23 05:23 pmESE 4 10------ 49.5- 47.7---
2024-05-23 05:13 pm E 3 11------ 49.6- 47.7---
2024-05-23 05:03 pmESE 3 10------ 49.5- 47.8---
2024-05-23 04:53 pmESE 4 7------ 49.3- 47.8---
2024-05-23 04:43 pmESE 4 9------ 49.6- 47.8---
2024-05-23 04:33 pmESE 3 8------ 49.8- 47.8---
2024-05-23 04:23 pmESE 4 10------ 49.8- 47.7---
2024-05-23 04:13 pm E 4 9------ 49.8- 47.7---
2024-05-23 03:53 pm E 3 9------ 49.8- 47.7---
2024-05-23 03:43 pm E 3 6------ 49.6- 47.7---
2024-05-23 03:33 pmESE 4 11------ 49.8- 47.7---
2024-05-23 03:23 pmESE 4 10------ 50.0- 47.7---
2024-05-23 03:13 pmESE 3 8------ 50.0- 47.8---
2024-05-23 03:03 pmESE 4 14------ 49.8- 47.7---
2024-05-23 02:53 pmESE 4 13------ 50.0- 47.7---
2024-05-23 02:43 pmESE 3 9------ 50.0- 47.8---
2024-05-23 02:33 pm SE 5 9------ 50.0- 47.7---
2024-05-23 02:13 pmESE 5 12------ 50.0- 47.7---
2024-05-23 02:03 pmESE 4 10------ 50.2- 47.7---
2024-05-23 01:53 pmESE 4 12------ 50.2- 48.0---
2024-05-23 01:43 pmESE 5 11------ 50.2- 47.8---
2024-05-23 01:33 pm E 6 8------ 50.2- 47.7---
2024-05-23 01:23 pmESE 4 9------ 50.0- 48.0---
2024-05-23 01:13 pm SE 6 11------ 49.5- 48.0---
2024-05-23 01:03 pmSSE 6 12------ 49.8- 48.0---
2024-05-23 12:53 pm SE 4 11------ 49.5- 48.0---
2024-05-23 12:43 pm SE 4 9------ 49.3- 47.8---
2024-05-23 12:33 pmESE 4 9------ 49.1- 47.7---
2024-05-23 12:23 pmESE 4 8------ 49.3- 47.8---
2024-05-23 12:13 pmESE 4 9------ 49.5- 48.0---
2024-05-23 12:03 pm SE 3 8------ 49.3- 47.8---
2024-05-23 11:53 am SE 4 9------ 49.3- 47.8---
2024-05-23 11:43 am SE 4 9------ 49.3- 47.8---
2024-05-23 11:33 amSSE 3 7------ 49.3- 47.8---
2024-05-23 11:23 amESE 3 8------ 49.5- 48.0---
2024-05-23 11:13 amESE 3 8------ 49.3- 47.8---
2024-05-23 11:03 am SE 3 6------ 49.3- 47.8---
2024-05-23 10:53 am SE 3 7------ 49.3- 47.8---